Temp
23 24 25 29 28 30 31 34 37 35 34 34 34 33 33 34 33 31 31 30 30 26 26 26 25 25 25 24 24 24 23 23 23 23 23 23 22 22 21 21 20 20 20 20 20 20 20 20 21
23 23 28 29 29 30 33 36 34 33 33 33 34 33 34 33 33 33 31 29 29 26 25 25 25 24 25 24 24 24 23 23 23 23 23 23 22 22 21 21 20 20 20 20 20 20 20 20 20
23 26 28 29 30 30 33 34 33 33 33 33 33 34 34 32 32 31 29 28 29 27 24 23 24 24 24 24 24 24 24 24 23 23 23 23 22 22 21 21 20 20 20 20 20 20 20 20 20
26 29 29 28 30 32 34 35 34 34 34 33 33 32 34 32 31 30 29 28 29 28 25 23 23 23 24 24 24 24 24 23 23 23 22 22 22 21 21 21 20 20 20 20 20 20 20 20 20
27 28 28 29 30 32 34 36 35 33 33 33 32 31 32 31 31 29 28 27 28 28 26 24 23 22 23 24 24 24 23 23 23 23 22 22 22 21 21 20 20 20 20 20 20 20 20 20 20
27 29 27 29 31 34 35 35 34 32 32 32 32 32 32 32 30 30 28 27 27 26 24 24 23 22 22 23 23 23 23 23 22 22 22 22 22 21 21 21 20 20 20 20 20 20 20 20 20
26 28 28 29 30 31 33 34 33 32 31 31 31 30 32 32 30 30 30 27 26 26 24 23 22 22 22 22 23 23 23 23 22 22 22 22 21 21 21 20 20 20 19 20 20 20 20 20 20
28 28 27 28 29 30 33 33 32 31 30 32 31 30 30 31 30 30 30 29 26 25 25 23 23 21 21 21 22 22 22 22 22 22 22 22 21 21 20 20 20 20 20 20 20 20 20 19 20
28 26 26 28 30 30 31 30 32 31 30 31 31 31 31 30 30 30 29 30 27 26 25 23 23 21 20 20 21 21 22 22 21 21 21 21 20 20 20 20 20 19 19 19 19 19 19 19 19
27 26 28 30 30 29 29 29 29 28 29 29 30 31 31 30 29 29 29 28 29 28 26 25 23 22 21 21 21 21 21 21 20 20 20 20 20 20 19 19 19 20 19 19 19 19 19 19 19
27 26 28 29 29 28 27 27 28 27 27 28 28 28 29 28 28 28 28 28 28 28 29 26 25 23 22 22 22 21 20 20 20 19 19 20 20 20 20 20 19 19 19 19 19 19 19 19 19
27 27 27 28 28 27 26 26 26 26 26 28 28 28 27 27 27 27 27 27 28 28 28 29 26 25 23 23 23 21 21 20 20 20 20 20 20 21 21 20 20 19 19 18 19 19 19 19 20
25 26 27 27 26 26 26 25 25 26 27 28 28 27 27 27 27 27 27 26 26 26 26 27 27 25 24 24 25 23 22 21 21 21 20 20 20 21 21 20 20 19 19 19 19 19 20 20 20
25 25 24 25 25 26 25 26 26 26 28 27 27 27 27 27 28 27 27 26 26 26 26 25 26 25 24 24 24 24 23 23 22 21 21 20 21 21 20 20 20 20 21 21 20 21 20 21 21
23 22 24 25 26 26 25 24 25 28 27 26 27 27 27 27 27 26 26 25 25 25 26 26 25 26 24 24 23 24 24 24 23 23 22 21 21 21 20 20 20 21 21 21 22 22 22 22 21
22 23 22 26 26 26 25 23 26 27 27 26 26 27 26 26 24 19 18 19 20 24 25 25 25 25 24 24 23 23 23 23 23 23 23 21 22 21 21 20 20 21 21 21 21 22 22 22 22
24 23 25 26 27 25 24 23 25 26 26 26 25 22 21 20 19 17 17 16 16 17 19 24 24 25 25 24 23 23 23 23 23 23 24 22 21 22 21 20 21 21 20 21 21 21 21 22 22
23 24 24 24 26 26 24 24 25 25 26 22 20 19 19 18 17 15 14 13 13 14 17 19 22 23 24 24 23 22 22 23 23 23 23 23 21 21 21 21 21 21 21 20 21 21 21 21 22
21 21 22 24 25 23 23 23 24 23 20 19 18 17 16 16 16 13 12 11 11 11 12 13 16 16 22 22 23 21 21 21 21 22 22 22 21 21 21 21 21 21 21 20 21 21 21 21 21
21 21 21 23 24 23 22 22 23 20 18 18 15 14 13 13 13 12 11 10 8 8 10 12 12 12 19 22 22 22 21 21 21 21 21 22 20 21 21 20 21 21 21 20 20 21 20 20 21
21 21 21 21 22 22 22 23 20 20 19 17 15 13 11 10 10 10 10 8 7 6 7 9 10 11 17 22 22 22 21 20 21 20 21 21 20 20 21 19 20 20 20 20 20 20 20 20 20
20 22 21 20 20 19 22 19 23 19 17 15 13 11 10 9 9 9 8 7 6 5 5 6 7 9 11 21 21 21 21 20 20 20 21 21 21 19 19 19 20 19 20 20 20 19 19 19 19
19 20 20 20 19 20 21 20 20 18 15 13 12 10 9 8 7 7 6 5 5 4 3 3 4 7 9 10 20 21 20 20 20 20 21 22 21 20 18 18 19 19 19 20 21 18 18 19 19
20 19 20 21 20 18 21 21 15 14 13 12 11 9 7 7 6 5 4 3 3 3 1 2 3 4 6 8 10 15 19 19 19 20 20 22 21 18 17 17 18 18 19 20 20 19 19 20 19
20 20 18 20 18 18 21 20 15 14 13 11 9 7 6 6 5 4 3 2 1 1 1 1 2 2 5 6 8 10 14 17 19 19 20 21 21 20 17 17 17 17 19 19 19 19 20 20 18
19 19 18 16 18 18 21 18 12 14 13 11 9 7 6 5 4 3 2 0 0 -0 0 0 1 1 2 5 7 8 11 12 15 17 20 21 21 20 19 17 17 17 18 17 18 18 19 17 16
19 17 19 17 18 17 20 13 14 12 11 9 7 6 4 4 3 2 1 -0 -0 -1 -1 -1 0 0 2 3 5 7 8 9 10 13 17 21 21 20 20 18 18 18 18 17 18 18 17 15 15
19 20 17 17 15 16 18 14 12 9 8 8 5 4 4 3 3 2 0 -0 -1 -1 -1 -1 -1 -0 0 2 4 5 5 6 7 8 12 11 18 18 18 18 17 17 17 16 17 16 16 16 16
18 18 17 18 17 16 16 12 9 8 8 7 6 3 3 2 2 1 0 -1 -1 -1 -1 -1 -1 -1 -0 1 2 4 4 4 5 6 7 8 9 12 13 13 13 15 15 16 15 16 17 17 17
19 17 17 14 15 15 13 10 9 8 8 7 6 4 3 3 2 1 0 -0 -1 -1 -2 -1 -1 -1 -1 -0 1 1 2 2 3 4 5 6 6 8 10 11 11 11 13 14 14 15 15 16 16
Height
779 778 776 771 787 772 766 742 714 730 734 730 733 740 744 734 742 763 743 744 745 744 743 747 751 755 759 763 765 769 772 777 780 784 788 789 793 795 797 800 802 805 806 807 808 810 812 812 813
778 776 775 769 785 780 753 723 739 740 736 733 735 737 739 742 732 734 739 744 746 745 744 748 752 757 760 764 767 769 773 776 780 784 787 790 793 796 798 801 803 806 808 809 810 811 813 813 814
780 777 776 773 772 778 755 732 739 736 734 738 739 734 737 745 739 744 746 746 745 744 746 748 753 758 760 764 767 769 773 776 779 784 787 790 794 797 800 802 804 807 809 810 811 812 813 815 815
779 773 772 779 774 749 738 728 732 737 734 735 739 751 734 740 743 749 749 749 746 746 747 751 755 760 762 765 768 770 773 777 780 784 788 790 794 797 801 803 805 807 809 811 812 813 814 816 816
778 772 778 775 765 746 731 720 723 736 741 740 742 753 744 742 746 749 751 751 749 748 749 754 757 761 764 765 768 771 774 777 780 783 788 791 794 797 800 803 806 807 809 811 813 814 815 817 817
778 768 783 779 756 734 725 719 728 739 744 743 747 747 743 741 745 749 749 752 752 751 753 756 759 763 766 769 771 773 775 777 781 783 788 791 794 797 800 802 806 808 810 812 814 815 816 818 819
780 776 779 768 761 748 732 721 734 742 749 752 744 756 744 743 748 749 749 751 755 755 754 758 760 763 766 769 771 773 776 778 781 783 787 791 795 797 800 802 805 808 811 812 814 816 817 819 820
771 773 779 770 770 760 731 728 733 744 752 743 745 758 753 741 748 750 749 750 752 755 755 757 759 762 766 770 772 773 775 778 781 783 786 790 794 798 800 802 805 807 809 812 814 815 817 818 819
769 785 785 770 758 752 740 747 738 742 751 749 749 749 747 745 749 750 751 750 752 753 755 756 758 761 765 769 771 773 774 776 780 784 786 789 792 796 800 802 804 806 808 811 814 815 817 818 820
775 779 770 751 748 756 751 756 755 759 758 756 751 747 748 750 752 753 755 756 753 752 751 753 756 760 764 768 769 771 774 775 777 782 785 788 792 794 798 801 803 804 807 810 812 814 816 817 819
767 778 764 757 752 758 762 764 759 764 767 758 759 756 754 755 756 758 758 758 757 754 751 750 752 755 760 764 765 768 771 773 775 778 782 786 789 793 796 798 801 802 805 808 810 813 814 816 818
769 763 764 760 757 764 769 765 768 765 761 755 755 755 756 758 760 760 759 758 756 753 750 750 747 750 754 760 761 762 767 770 772 775 779 782 786 790 794 796 798 800 803 806 808 811 813 815 817
772 768 763 759 762 765 764 768 766 761 754 753 753 755 756 756 755 756 757 758 757 755 751 748 751 744 749 754 758 758 760 764 768 771 774 778 782 784 789 793 796 798 800 803 805 808 811 813 815
767 768 769 766 763 761 764 762 760 753 748 752 753 754 753 752 752 753 754 754 754 754 753 748 747 748 743 748 752 754 755 759 762 765 768 773 778 781 784 789 792 795 797 800 802 805 807 809 812
771 778 768 759 752 755 759 768 759 742 746 751 750 750 750 750 751 753 755 755 754 752 751 749 746 746 742 741 746 749 752 755 756 760 762 766 772 776 780 784 787 790 793 796 799 801 804 806 808
775 771 776 747 752 753 760 774 751 746 747 749 747 746 747 749 754 760 762 761 759 752 748 747 745 743 745 739 739 745 746 749 751 754 757 759 763 769 774 778 782 787 790 792 795 797 800 803 805
759 774 760 752 740 751 762 768 754 750 748 748 748 757 760 762 762 764 766 765 760 755 751 744 743 740 738 740 737 737 742 744 744 746 750 752 757 761 767 771 777 783 787 789 792 794 796 798 802
772 766 761 762 750 748 755 761 755 748 745 759 765 769 771 773 775 776 771 767 765 760 753 746 741 738 735 734 734 732 731 736 736 740 743 745 748 753 759 766 770 776 781 785 787 790 793 794 799
776 777 773 760 748 757 762 762 755 753 763 773 777 780 781 782 783 784 782 778 769 763 757 751 744 736 731 729 728 728 728 725 732 732 735 739 742 748 754 758 763 768 773 779 781 786 790 792 795
777 777 771 756 749 756 760 761 749 765 775 779 788 791 791 787 786 783 781 781 779 770 760 751 744 736 727 723 722 721 722 720 721 728 728 732 733 740 746 750 755 760 766 773 777 780 785 789 792
772 771 768 769 763 758 755 753 764 765 769 780 789 796 801 800 793 788 785 782 778 772 762 751 746 736 721 715 715 715 714 716 717 719 720 722 727 730 737 743 749 753 757 764 771 775 777 782 787
778 761 769 772 772 777 756 773 752 764 773 784 791 799 800 797 797 795 790 785 780 774 766 755 743 731 717 708 708 707 708 708 705 708 710 712 719 720 728 736 743 746 751 756 762 766 771 776 781
776 768 773 772 773 768 758 762 761 770 787 793 797 799 803 805 804 799 795 790 782 776 766 753 740 727 716 707 700 699 698 699 700 697 701 700 708 711 717 726 733 739 744 749 753 756 762 767 772
769 771 764 759 763 773 746 751 790 788 800 804 806 808 811 809 806 803 800 792 783 774 763 752 740 729 718 710 701 695 691 691 692 690 690 690 698 704 709 717 726 733 738 741 742 746 752 756 761
770 767 772 761 773 771 743 755 792 796 804 814 814 815 816 813 809 805 800 796 785 776 765 755 743 728 719 712 704 694 686 683 680 680 674 681 689 696 700 706 716 722 728 732 735 739 743 745 751
771 771 779 785 774 765 743 765 806 802 807 809 817 819 821 815 812 812 807 798 790 781 771 760 747 731 724 717 709 696 684 678 671 664 658 665 674 685 691 696 705 711 718 724 730 734 741 742 749
769 779 767 779 769 768 752 794 794 803 808 814 819 820 822 817 817 814 808 802 793 782 771 763 748 736 730 720 713 700 689 680 666 663 658 655 662 675 683 690 695 706 714 720 728 734 736 737 745
768 762 778 776 784 773 754 779 794 814 815 816 822 825 824 821 820 817 811 801 795 784 773 763 749 739 737 728 719 706 700 686 675 664 646 672 646 661 675 685 694 702 711 715 724 731 730 734 741
766 770 776 773 775 777 769 791 822 826 823 822 826 829 826 824 823 819 812 803 794 781 769 762 750 748 744 731 717 709 705 694 686 691 681 672 640 646 670 684 693 704 707 703 724 729 734 730 732
760 769 775 791 780 783 787 808 821 823 824 825 828 829 828 827 824 819 811 802 792 780 773 770 762 760 748 735 722 710 709 703 691 697 703 685 669 668 677 682 690 703 703 723 723 726 725 720 725
Wind_Speed
9 13 12 14 6 6 14 18 7 4 4 9 9 6 10 8 11 5 16 15 11 15 26 26 25 23 21 19 18 18 20 20 18 17 15 15 14 14 14 14 12 10 10 10 9 8 9 7 5
11 16 10 6 7 10 10 6 16 14 13 8 5 5 4 10 16 9 19 19 8 14 19 25 25 23 21 19 18 18 20 21 20 18 17 16 15 15 15 14 14 11 10 9 10 9 9 7 7
9 12 6 6 11 12 14 10 10 9 8 4 3 3 3 6 13 9 20 18 8 13 14 19 26 24 22 20 19 19 20 22 21 20 19 18 16 16 16 15 14 12 10 9 9 9 8 8 8
8 9 6 7 14 18 18 4 8 2 5 6 4 9 3 10 10 14 17 13 6 15 12 16 23 23 22 20 19 20 21 22 21 21 20 19 18 17 16 15 15 13 11 10 9 9 9 9 7
10 6 10 14 15 16 17 13 3 5 6 9 10 7 7 15 11 13 14 12 7 7 10 14 18 23 21 21 20 20 22 22 22 21 21 20 19 18 17 15 14 14 12 10 9 9 9 8 7
7 8 10 12 16 16 14 11 7 9 6 8 5 10 5 12 15 12 11 9 6 6 10 12 16 22 20 19 19 19 21 23 23 23 22 21 20 19 19 17 15 13 11 10 9 9 9 8 8
11 9 14 17 16 18 18 5 4 2 7 9 7 7 5 15 18 14 6 7 3 3 7 6 11 23 21 20 20 19 20 23 23 24 23 22 21 20 19 18 16 14 11 10 10 10 9 9 8
9 10 17 14 14 17 14 6 9 8 11 14 11 5 7 12 21 15 12 2 7 6 7 7 5 19 21 21 20 20 20 22 24 25 24 23 21 20 19 18 16 15 12 11 11 11 11 10 8
7 9 11 15 16 12 15 17 8 9 11 9 6 11 12 20 18 11 15 19 6 8 10 10 10 15 18 18 21 21 21 23 24 24 24 23 22 21 19 18 16 15 13 12 12 12 11 10 9
8 9 14 14 13 12 16 13 14 15 16 16 15 12 14 14 14 13 13 16 24 12 12 16 16 20 19 19 18 23 22 23 25 26 25 24 21 20 18 18 17 16 15 14 14 14 13 11 9
13 14 16 17 16 12 12 16 15 17 16 15 16 16 14 16 17 17 18 18 20 25 23 16 22 24 25 23 24 23 20 23 26 24 24 26 23 20 21 21 20 18 18 17 17 16 16 14 13
14 12 14 18 12 12 14 15 17 17 18 16 15 13 13 12 10 13 16 17 19 21 23 13 22 27 29 25 25 26 25 24 24 26 26 27 25 23 24 23 23 19 20 18 19 17 16 14 15
14 14 15 16 11 13 15 16 18 20 17 13 11 8 10 10 9 9 11 16 19 22 26 29 17 31 28 29 23 27 30 29 27 28 30 28 27 27 25 24 24 23 21 21 20 19 17 17 17
14 14 15 17 18 15 16 13 12 18 10 7 8 9 10 10 12 12 14 17 19 20 22 31 29 20 32 28 33 23 28 29 32 30 32 33 29 28 29 26 25 25 24 23 25 22 23 20 19
9 14 17 19 19 7 6 13 11 3 5 5 11 12 12 13 14 12 17 19 23 22 23 24 29 25 32 32 30 31 29 26 34 31 33 37 34 30 31 31 26 26 27 25 23 21 18 19 19
10 13 12 2 6 4 2 11 9 15 14 16 16 11 11 13 23 37 39 39 40 30 25 26 27 28 20 33 30 32 25 33 26 33 32 39 40 33 31 32 30 28 26 31 22 24 22 21 21
13 9 9 8 6 7 9 8 10 14 14 15 10 20 20 21 26 36 40 41 44 44 44 24 26 30 31 25 35 34 34 30 41 31 31 37 41 41 31 31 29 28 28 27 27 25 23 25 21
10 9 13 14 13 14 14 14 12 14 10 19 18 17 18 19 22 33 42 45 45 44 41 40 30 31 31 33 34 34 39 34 33 32 38 33 40 42 35 30 31 31 28 27 33 23 16 22 22
8 12 15 14 13 11 12 14 14 13 17 16 16 18 19 19 22 28 32 37 43 44 44 41 42 46 36 31 26 36 35 35 34 38 36 30 40 40 37 31 32 32 30 28 28 31 23 22 20
9 13 15 13 11 10 15 16 5 17 15 16 18 19 21 22 22 28 31 33 36 41 42 40 43 49 41 34 30 31 39 38 38 37 40 45 35 41 46 32 33 36 31 26 31 32 23 18 21
12 11 12 13 14 15 17 14 19 15 15 17 19 19 19 20 22 23 30 31 36 37 41 42 42 46 43 34 35 37 38 39 39 39 36 45 36 43 49 40 30 37 35 29 30 32 32 20 16
11 7 6 12 11 11 13 6 14 13 16 19 20 19 21 23 23 21 28 31 31 34 37 39 41 43 45 35 34 34 26 34 37 39 40 37 43 42 44 45 43 32 37 38 26 32 32 28 20
7 8 10 14 14 15 17 9 7 12 17 19 20 21 22 21 22 22 27 33 32 32 34 36 39 40 42 45 30 35 34 32 41 39 40 39 43 41 42 46 48 35 34 33 33 34 34 32 26
10 11 15 16 13 9 16 11 12 9 16 16 17 19 21 20 21 24 31 32 33 35 37 37 35 37 39 40 38 29 33 29 38 44 42 35 36 36 39 41 41 45 31 36 39 39 38 33 36
7 11 6 3 6 8 8 7 8 13 14 14 16 18 18 18 19 19 22 28 30 32 36 36 36 40 38 36 35 30 29 31 36 50 42 38 32 35 37 42 40 41 39 38 42 39 37 41 39
4 6 5 5 6 11 19 5 6 11 13 15 16 16 17 19 18 17 23 28 29 31 32 33 34 37 40 36 31 24 20 25 29 47 40 41 40 39 39 41 42 42 42 36 40 36 35 30 31
3 5 7 7 14 11 6 9 9 14 15 15 17 18 16 18 17 18 25 26 30 31 31 32 33 37 38 38 30 24 21 18 22 17 23 36 43 40 38 39 40 38 37 36 38 38 39 27 27
8 5 4 4 4 8 2 8 4 15 16 17 15 15 16 15 17 16 21 25 29 32 32 36 36 37 37 31 27 23 28 30 35 25 18 21 33 30 29 27 22 28 32 33 33 25 22 21 25
9 5 4 6 6 6 7 4 3 9 11 13 13 11 13 13 14 14 21 25 29 34 38 37 41 39 35 31 29 27 29 34 37 34 21 26 33 37 28 19 17 12 15 25 24 25 28 25 22
3 2 2 2 7 7 4 3 4 8 9 11 12 12 11 12 13 14 21 24 28 34 38 34 37 33 33 32 26 33 26 32 42 37 25 26 31 28 23 22 20 17 15 1 5 10 14 15 17
Wind_Direction
284 291 273 275 249 224 262 256 70 69 133 74 28 336 340 296 5 53 76 41 3 158 167 169 171 172 170 172 172 173 172 173 173 171 170 164 162 159 157 156 151 147 143 146 146 145 146 139 135
297 298 261 273 253 271 270 76 55 48 45 37 260 267 269 60 29 26 15 3 357 156 167 173 176 177 173 174 175 174 175 175 176 177 173 172 168 166 166 165 160 153 149 145 148 149 153 147 145
284 280 275 231 240 258 283 64 75 65 60 25 309 48 329 23 45 24 2 355 344 150 156 179 179 181 178 176 179 179 179 179 178 181 178 176 175 174 174 169 167 166 161 154 157 157 153 148 147
267 230 242 257 267 284 286 43 94 345 346 135 42 301 52 64 46 20 8 0 333 144 146 183 185 186 183 180 182 183 182 183 181 183 184 180 180 180 178 175 173 172 166 167 165 155 151 152 154
243 270 257 263 267 266 281 294 223 340 339 320 32 306 332 85 68 29 25 23 10 108 160 181 193 190 191 186 187 187 187 188 186 185 188 184 185 185 180 181 178 173 172 175 170 163 158 159 154
260 249 268 265 262 256 238 266 20 2 314 304 280 261 284 109 63 30 43 40 22 112 139 168 191 196 197 195 194 192 193 193 191 188 191 191 190 188 184 183 182 180 182 182 176 173 165 161 155
256 275 261 274 289 301 301 9 295 9 347 293 13 317 289 77 41 19 15 74 85 140 145 168 197 197 198 202 200 199 199 197 195 192 193 194 195 192 189 186 184 184 188 187 181 177 169 163 159
257 280 274 270 276 281 300 297 17 357 326 345 337 285 314 344 6 340 334 356 133 181 205 173 200 195 200 207 207 204 202 201 199 195 195 195 196 197 195 191 190 190 190 192 184 178 172 168 164
281 263 261 263 272 340 342 353 12 349 301 314 302 289 309 326 340 356 346 330 132 169 199 195 197 194 201 208 211 208 206 202 201 199 196 196 194 198 202 197 198 194 193 192 187 182 181 174 172
227 259 259 287 336 336 324 330 330 325 309 304 301 311 325 328 329 321 321 320 320 304 194 207 194 193 197 202 210 210 208 202 198 198 197 196 194 203 201 203 200 202 195 193 190 189 188 180 186
249 255 275 305 321 331 306 303 308 307 299 299 316 319 317 318 321 313 306 303 304 298 300 203 200 198 196 202 198 211 204 202 202 200 200 194 192 202 194 200 201 201 195 192 192 194 193 186 193
246 273 288 295 314 301 298 303 293 287 281 295 302 313 315 312 296 289 298 300 300 310 309 287 206 195 198 204 201 194 196 201 198 197 195 194 194 199 196 198 203 200 200 190 197 202 199 205 203
292 284 278 286 292 280 283 282 285 282 284 285 285 299 298 295 290 308 317 315 313 317 313 310 309 199 199 204 215 200 194 199 200 198 195 194 197 196 197 199 194 195 201 190 199 200 202 209 223
295 298 287 279 277 272 269 290 290 272 291 350 323 288 291 310 327 323 313 318 313 302 297 299 306 243 200 205 218 220 201 202 199 200 197 196 199 199 199 200 200 199 200 197 205 200 205 204 212
298 283 284 272 249 238 347 272 249 44 172 315 305 303 303 306 318 327 333 328 319 303 292 279 291 307 211 205 212 229 218 209 200 204 201 201 200 203 201 200 203 203 200 204 210 206 213 209 201
265 262 275 216 139 195 277 294 298 342 324 313 305 306 307 344 16 7 353 350 346 321 298 283 284 277 276 214 210 225 224 217 213 205 205 201 203 201 202 198 203 204 201 208 207 211 219 217 214
235 253 253 216 226 152 197 276 314 323 300 292 349 34 19 7 4 358 352 346 339 336 331 303 292 281 272 260 222 216 227 221 217 214 209 206 201 201 202 200 198 202 204 205 208 215 220 210 229
336 282 307 296 302 307 307 309 313 300 329 42 33 22 15 5 2 354 346 342 336 333 333 329 308 292 285 266 239 227 216 228 216 218 210 207 196 200 198 202 203 206 209 208 208 213 216 201 215
313 294 288 289 296 326 295 299 304 61 58 42 26 15 7 358 355 349 344 337 332 331 330 331 317 320 280 279 262 232 226 217 227 213 210 206 199 200 198 206 198 199 199 205 202 209 220 212 213
283 279 278 287 307 314 306 300 36 83 67 47 27 13 2 354 349 347 344 337 335 327 324 325 325 321 287 264 262 241 232 223 215 222 215 208 204 209 202 200 200 201 197 207 203 203 209 212 209
262 272 292 307 313 293 282 284 125 115 61 38 27 16 6 357 348 342 340 340 333 329 327 326 323 316 304 259 258 260 242 229 226 222 215 212 205 206 205 203 196 196 196 200 208 207 207 209 210
275 301 322 291 296 291 323 281 291 56 36 24 16 8 4 359 352 341 338 337 332 329 327 327 325 323 327 258 251 257 253 234 222 220 215 205 202 198 201 201 203 198 202 206 206 197 197 202 203
267 323 287 284 283 282 271 256 78 53 23 15 9 6 3 358 350 344 341 333 334 334 331 332 334 333 330 325 266 254 249 249 233 220 221 202 201 197 190 198 203 200 196 202 203 185 192 199 197
280 285 272 251 246 266 266 240 46 24 23 12 8 11 1 355 350 349 344 341 335 336 336 338 339 340 338 333 323 304 258 252 237 225 217 207 192 182 185 192 200 206 207 199 200 196 195 202 205
233 277 300 211 202 238 134 286 59 41 39 24 18 13 360 356 356 351 348 338 339 339 342 336 340 342 338 339 331 321 290 268 248 232 203 206 196 197 186 188 195 199 205 199 197 195 199 207 207
314 312 291 304 309 314 317 113 90 51 40 36 19 18 360 2 0 349 344 344 342 339 341 342 345 350 342 337 331 330 321 296 289 238 202 204 200 196 191 185 192 198 199 192 199 200 206 202 209
137 243 324 287 276 264 229 98 120 28 18 16 13 7 360 2 355 348 343 345 343 346 347 342 352 351 339 342 338 2 16 7 344 304 226 216 190 187 183 183 189 194 188 186 199 203 204 209 223
234 341 274 225 278 298 125 141 9 354 355 359 11 3 356 357 348 343 338 348 347 352 349 354 357 360 341 349 339 13 26 34 27 2 31 316 159 163 164 173 166 165 178 188 198 205 207 227 241
197 208 259 305 281 279 299 83 20 355 1 360 354 2 352 351 343 340 340 346 349 357 357 355 2 351 339 346 351 11 26 34 39 17 9 356 63 100 112 104 94 170 168 188 203 216 228 234 236
339 88 338 312 296 327 268 144 54 19 10 1 353 356 353 349 342 341 348 350 356 360 354 348 0 346 344 346 9 23 15 37 38 29 354 36 31 66 90 90 80 46 41 299 229 238 242 248 246